PRAETORIAN SDA_602

Last updated on Sun Jun 21 2026 00:03:46 GMT+0000 (Coordinated Universal Time)

1 65565U 25203A 26171.27657532 .00000062 00000+0 45004-4 0 9997 2 65565 81.3029 7.9069 0005957 177.1718 182.9474 13.84277876 39124
UTC large
Height (km)
Speed (km/s)
/
Latitude / Longitude
Inclination (degrees)
Orbital Period (minutes)
Azimuth
Elevation
Range (km)
Doppler Factor

Next 0 passes for location: London (51.5072 / 0.1276)

No passes found over London.
PRAETORIAN SDA_602